Tracking 17752 objects as of 30-June-2016
HD Live streaming from Space Station
objects crossing your sky now

ACRIMSAT

Track ACRIMSAT now!
10-day predictions
ACRIMSAT is classified as:


NORAD ID: 26033
Int'l Code: 1999-070B
Perigee: 673.6 km
Apogee: 713.7 km
Inclination: 97.9 °
Period: 98.5 minutes
Semi major axis: 7064 km
RCS: 0.514 m2 (medium)
Launch date: December 21, 1999
Source: United States (US)
Launch site: AIR FORCE WESTERN TEST RANGE (AFWTR)

Monitor total solar irradiance (TSI) with maximum precision; ascertain the extent of solar radiation variability.
Your satellite tracking list
Your tracking list is empty





NASA's NSSDC Master Catalog

Two Line Element Set (TLE):
1 26033U 99070B   16181.84036292  .00000045  00000-0  17879-4 0  9995
2 26033  97.8866 332.2731 0028383  19.0987 341.1272 14.62079778880770
Source of the keplerian elements: AFSPC

N2YO: 1009